Time,TemperatureF,DewpointF,PressureIn,WindDirection,WindDirectionDegrees,WindSpeedMPH,WindSpeedGustMPH,Humidity,HourlyPrecipIn,Conditions,Clouds,dailyrainin,SoftwareType,DateUTC
2014-07-24 00:04:00,67.2,0.0,0.00,SSW,198,1.0,3.0,0,0.00,CLR,SCT,0.00,WeatherDisplay:10.37,2014-07-23 22:04:00,
2014-07-24 00:09:00,66.8,0.0,0.00,SSW,210,0.0,2.0,0,0.00,CLR,SCT,0.00,WeatherDisplay:10.37,2014-07-23 22:09:00,
2014-07-24 00:14:00,66.5,0.0,0.00,SSW,210,0.0,2.0,0,0.00,CLR,SCT,0.00,WeatherDisplay:10.37,2014-07-23 22:14:00,
2014-07-24 00:19:00,66.3,0.0,0.00,SW,218,0.0,1.0,0,0.00,CLR,SCT,0.00,WeatherDisplay:10.37,2014-07-23 22:19:00,
2014-07-24 00:24:00,65.9,0.0,0.00,West,267,0.0,1.0,0,0.00,CLR,SCT,0.00,WeatherDisplay:10.37,2014-07-23 22:24:00,
2014-07-24 00:29:00,65.5,0.0,0.00,West,276,0.0,1.0,0,0.00,CLR,SCT,0.00,WeatherDisplay:10.37,2014-07-23 22:29:00,
2014-07-24 00:34:00,65.1,0.0,0.00,WSW,254,0.0,1.0,0,0.00,CLR,SCT,0.00,WeatherDisplay:10.37,2014-07-23 22:34:00,
2014-07-24 00:39:00,65.1,0.0,0.00,SW,225,0.0,2.0,0,0.00,CLR,SCT,0.00,WeatherDisplay:10.37,2014-07-23 22:39:00,
2014-07-24 00:44:00,64.9,0.0,0.00,SSW,211,0.0,1.0,0,0.00,CLR,SCT,0.00,WeatherDisplay:10.37,2014-07-23 22:44:00,
2014-07-24 00:49:00,64.6,0.0,0.00,SW,232,0.0,1.0,0,0.00,CLR,SCT,0.00,WeatherDisplay:10.37,2014-07-23 22:49:00,
2014-07-24 00:54:00,64.5,0.0,0.00,WSW,254,0.0,2.0,0,0.00,CLR,SCT,0.00,WeatherDisplay:10.37,2014-07-23 22:54:00,
2014-07-24 00:59:00,64.1,0.0,0.00,WSW,242,0.0,1.0,0,0.00,CLR,SCT,0.00,WeatherDisplay:10.37,2014-07-23 22:59:00,
2014-07-24 01:04:00,63.8,0.0,0.00,SW,220,0.0,1.0,0,0.00,CLR,SCT,0.00,WeatherDisplay:10.37,2014-07-23 23:04:00,
2014-07-24 01:09:00,63.5,0.0,0.00,West,261,0.0,0.0,0,0.00,CLR,SCT,0.00,WeatherDisplay:10.37,2014-07-23 23:09:00,
2014-07-24 01:14:00,63.1,0.0,0.00,West,259,0.0,0.0,0,0.00,CLR,SCT,0.00,WeatherDisplay:10.37,2014-07-23 23:14:00,
2014-07-24 01:19:00,62.9,0.0,0.00,WSW,245,0.0,0.0,0,0.00,CLR,SCT,0.00,WeatherDisplay:10.37,2014-07-23 23:19:00,
2014-07-24 01:24:00,62.7,0.0,0.00,West,259,0.0,0.0,0,0.00,CLR,SCT,0.00,WeatherDisplay:10.37,2014-07-23 23:24:00,
2014-07-24 01:29:00,62.2,0.0,0.00,West,269,0.0,0.0,0,0.00,CLR,SCT,0.00,WeatherDisplay:10.37,2014-07-23 23:29:00,
2014-07-24 01:34:00,62.2,0.0,0.00,WSW,242,0.0,0.0,0,0.00,CLR,SCT,0.00,WeatherDisplay:10.37,2014-07-23 23:34:00,
2014-07-24 01:39:00,62.0,0.0,0.00,WSW,243,0.0,0.0,0,0.00,CLR,SCT,0.00,WeatherDisplay:10.37,2014-07-23 23:39:00,
2014-07-24 01:44:00,61.7,0.0,0.00,West,260,0.0,0.0,0,0.00,CLR,SCT,0.00,WeatherDisplay:10.37,2014-07-23 23:44:00,
2014-07-24 01:49:00,61.6,0.0,0.00,SW,235,0.0,0.0,0,0.00,CLR,SCT,0.00,WeatherDisplay:10.37,2014-07-23 23:49:00,
2014-07-24 01:54:00,61.6,0.0,0.00,SSW,195,0.0,0.0,0,0.00,CLR,SCT,0.00,WeatherDisplay:10.37,2014-07-23 23:54:00,
2014-07-24 01:59:00,61.7,0.0,0.00,South,171,0.0,0.0,0,0.00,CLR,SCT,0.00,WeatherDisplay:10.37,2014-07-23 23:59:00,
2014-07-24 02:04:00,61.7,0.0,0.00,SSE,165,0.0,1.0,0,0.00,CLR,SCT,0.00,WeatherDisplay:10.37,2014-07-24 00:04:00,
2014-07-24 02:09:00,61.9,0.0,0.00,South,190,0.0,1.0,0,0.00,CLR,SCT,0.00,WeatherDisplay:10.37,2014-07-24 00:09:00,
2014-07-24 02:14:00,61.7,0.0,0.00,WSW,257,0.0,1.0,0,0.00,CLR,SCT,0.00,WeatherDisplay:10.37,2014-07-24 00:14:00,
2014-07-24 02:19:00,61.5,0.0,0.00,West,265,0.0,0.0,0,0.00,CLR,SCT,0.00,WeatherDisplay:10.37,2014-07-24 00:19:00,
2014-07-24 02:24:00,61.5,0.0,0.00,WSW,250,0.0,1.0,0,0.00,CLR,SCT,0.00,WeatherDisplay:10.37,2014-07-24 00:24:00,